GFSMW_sfc_30mbdewp_021.txt.gz
Dewpoint
60 61 61 61 61 65 66 67 67 68 69 69 70 68 68 68 69 69 70 70 70 71 70 68 70 69 68 67 66 64 60 58 61 54 56 60 57 57 55 61 66 66 67
60 60 61 61 61 64 66 66 67 67 68 68 69 69 68 68 68 69 69 70 71 71 70 69 70 69 69 67 65 61 59 60 61 55 56 56 56 54 54 57 62 64 66
58 60 59 59 61 63 65 66 67 67 67 68 69 69 69 69 68 68 69 69 70 71 71 69 70 70 68 65 63 61 59 57 62 58 57 55 54 56 56 55 58 62 63
56 57 58 59 60 63 65 66 67 67 67 68 68 67 66 66 67 68 69 68 70 70 71 70 70 69 69 65 62 61 60 59 59 61 59 57 57 53 50 55 54 54 56
56 56 57 58 60 62 65 66 67 67 67 67 67 67 65 65 67 69 68 69 70 70 70 70 69 67 68 66 63 62 62 61 58 58 58 58 58 53 53 50 52 56 55
55 56 56 58 60 62 65 66 67 67 67 67 67 67 66 66 66 68 68 69 70 71 71 70 69 67 64 64 62 63 61 63 61 61 61 58 53 55 52 52 53 53 54
53 54 55 56 58 61 64 65 66 67 68 68 68 68 67 66 66 67 68 68 70 71 70 70 69 67 65 64 63 62 60 62 62 60 60 60 58 57 55 51 52 51 53
50 52 53 54 57 59 63 64 65 67 69 69 68 68 67 67 66 66 66 67 70 70 71 70 70 68 64 64 64 62 62 61 61 60 59 60 59 58 55 51 53 51 52
49 50 52 53 55 57 61 64 65 66 69 69 69 69 68 67 67 67 67 68 69 70 71 71 70 68 64 63 63 62 62 62 61 60 62 60 59 60 59 58 54 50 48
47 49 50 52 54 56 59 63 64 64 67 69 69 69 69 69 68 68 68 68 69 70 70 70 69 67 65 64 63 63 62 63 62 61 59 60 59 58 59 57 56 53 50
46 47 49 50 53 55 58 62 64 64 65 68 69 68 69 69 69 68 68 69 70 70 69 70 69 67 65 64 64 64 63 62 62 62 61 59 59 58 59 59 58 56 54
46 46 47 49 51 55 57 62 64 65 65 67 68 68 69 69 70 69 69 69 69 70 69 69 68 67 65 63 64 64 64 62 61 61 62 61 61 60 59 58 58 56 56
46 46 46 47 50 54 57 62 64 65 66 67 68 68 68 69 69 70 69 70 70 69 69 69 68 67 66 65 63 64 63 63 62 61 60 61 61 60 60 60 59 59 59
46 46 46 48 51 54 57 61 64 65 66 67 68 69 69 69 69 69 69 70 71 69 69 69 68 68 67 66 65 63 63 63 63 63 61 60 61 60 59 59 59 59 59
46 46 46 47 50 53 58 60 63 66 66 67 68 69 69 70 70 70 69 69 70 70 69 68 68 68 67 66 65 65 64 63 63 62 63 62 62 61 60 59 59 59 59
45 45 45 47 49 52 57 59 63 65 67 67 68 69 70 70 71 71 71 70 70 70 69 69 68 68 68 67 66 65 65 64 64 63 63 63 63 63 62 61 60 60 59
40 41 43 43 46 50 56 58 62 64 68 68 68 69 69 70 71 71 71 71 70 70 70 69 69 68 68 67 66 65 66 65 64 63 63 63 63 63 63 63 62 61 61
35 37 38 42 47 52 56 58 61 64 67 68 69 70 70 70 71 72 72 72 71 71 71 70 69 69 69 67 65 65 66 65 65 64 64 63 62 63 63 63 62 62 62
29 36 41 41 47 51 56 58 60 63 67 68 69 70 71 71 71 71 72 72 72 71 71 71 70 70 70 68 66 64 66 66 65 65 65 64 63 63 63 63 61 61 61
32 38 42 49 50 53 56 59 60 63 66 68 69 70 71 71 71 71 71 72 72 72 72 71 71 71 70 68 66 65 66 65 65 65 65 64 64 64 63 63 61 60 60
34 32 44 52 50 54 58 59 60 62 64 67 69 70 71 71 71 72 72 72 72 73 72 72 72 71 69 66 63 65 66 65 65 63 62 62 61 61 61 62 61 60 60
66 65 45 38 54 55 57 59 60 61 63 65 67 69 70 71 71 72 72 72 72 72 72 71 70 69 67 63 62 65 65 62 61 60 61 62 61 60 59 60 61 60 59
65 68 68 65 56 49 57 57 59 61 62 64 65 67 70 71 71 72 72 72 72 72 69 69 68 66 66 64 63 64 60 60 61 62 62 61 59 58 58 58 59 59 56
55 62 64 64 62 64 66 62 58 59 61 63 64 66 69 70 71 72 72 72 72 70 69 68 66 65 65 63 61 61 58 58 61 60 58 58 58 58 58 56 56 54 51
53 52 59 64 62 57 59 59 63 64 60 62 64 65 68 69 71 65 69 71 68 69 68 67 66 65 63 62 62 61 60 60 61 59 57 57 56 55 54 53 53 51 50
59 57 54 54 55 56 57 58 59 69 65 63 68 69 70 64 62 61 59 55 60 66 66 66 65 64 64 61 60 59 59 57 57 58 57 56 54 54 53 51 50 50 50

GFSMW_sfc_30mbdewp_024.txt.gz
Dewpoint
60 61 61 63 64 66 66 67 68 69 69 69 69 68 68 68 69 68 69 70 70 71 70 70 70 69 69 68 67 64 61 59 61 55 57 59 58 56 57 64 67 68 68
60 61 61 61 62 64 66 67 67 68 69 69 69 69 68 68 69 69 69 70 70 71 70 69 69 69 69 67 66 62 60 60 60 56 56 55 55 55 56 61 63 66 67
60 60 61 61 61 63 65 66 67 68 69 69 69 69 68 69 68 68 69 69 70 71 70 69 69 69 69 68 66 62 59 57 62 58 57 55 53 56 56 57 59 63 64
60 60 60 61 61 62 65 66 67 68 68 69 68 68 67 66 67 67 68 69 70 70 71 70 70 69 69 67 65 62 60 59 59 61 59 58 58 53 51 56 56 57 59
59 60 60 61 61 62 63 66 67 67 67 68 67 68 67 67 67 68 67 68 69 70 71 71 70 69 69 68 65 63 61 60 59 59 58 58 57 55 53 51 52 56 57
58 59 59 61 60 61 62 65 66 67 67 68 67 67 67 66 66 67 67 67 69 70 70 70 70 69 68 68 66 63 62 62 60 60 60 57 54 54 53 53 54 53 55
56 57 57 58 59 60 62 64 66 66 67 67 67 67 67 66 66 66 67 68 69 70 70 70 70 69 67 66 65 63 62 63 62 60 61 61 58 57 55 53 53 53 54
56 56 56 57 58 60 62 64 66 66 67 67 67 67 67 67 66 66 67 68 68 69 71 71 70 69 67 66 64 63 62 62 62 61 60 60 60 59 56 52 53 52 53
52 55 56 56 57 59 61 64 65 66 67 67 67 67 67 67 67 67 67 68 69 70 71 71 70 70 67 66 65 63 62 61 62 62 61 60 60 61 59 56 54 51 49
48 51 53 55 56 58 60 63 65 66 66 67 67 67 67 68 67 67 67 67 68 69 70 71 71 69 67 66 65 64 63 63 62 61 61 61 60 60 60 59 58 54 53
46 48 50 53 54 56 59 62 64 65 65 68 68 68 68 68 68 68 67 67 68 69 70 70 70 69 68 66 65 63 63 62 62 62 60 60 60 59 59 59 58 56 54
46 48 49 50 52 54 56 60 63 64 65 67 68 68 68 68 68 68 68 69 68 69 69 70 70 69 68 66 66 64 63 62 62 62 62 61 60 59 59 59 59 58 58
46 47 48 49 51 53 55 57 61 63 64 65 68 68 68 68 68 68 68 69 69 69 69 69 69 69 68 66 66 65 64 63 63 62 62 62 61 60 60 60 59 59 58
41 47 47 48 50 52 55 57 60 62 63 64 66 67 68 68 68 69 69 69 69 69 69 69 69 69 68 67 65 65 65 64 64 64 62 62 61 61 61 61 60 60 60
44 47 47 47 49 52 55 57 60 62 64 64 65 66 67 68 68 69 69 69 69 69 69 69 69 69 68 67 66 65 65 64 64 64 64 63 62 62 62 61 60 60 60
39 46 47 48 50 52 56 58 61 63 64 65 65 66 67 68 68 69 69 70 70 70 69 69 69 69 68 67 66 66 65 65 64 63 64 64 64 63 62 61 60 61 60
23 36 47 48 49 52 56 57 60 63 64 65 66 67 68 68 68 69 69 69 69 70 70 69 69 69 69 67 66 66 66 66 65 64 64 63 64 64 64 63 62 61 61
24 34 43 47 48 50 51 55 59 63 65 65 66 67 68 69 69 70 69 69 69 69 69 69 69 68 69 67 65 65 67 66 66 65 65 64 64 64 64 63 63 63 63
25 33 39 44 47 47 50 55 59 63 65 66 66 67 69 69 69 70 70 70 70 70 70 70 69 69 69 67 65 65 66 66 66 65 65 65 64 64 63 63 62 62 62
27 30 36 41 43 47 52 56 58 62 64 66 67 68 69 69 69 70 70 71 71 70 71 70 70 69 69 67 65 65 67 66 66 66 66 64 65 63 62 63 63 62 61
41 35 40 44 49 51 55 57 58 61 63 65 68 69 69 70 69 70 71 71 72 71 71 71 71 70 70 69 66 64 67 67 66 65 65 65 64 63 62 63 63 62 61
66 63 48 49 51 57 57 58 59 61 63 66 67 69 69 70 70 70 71 71 72 71 71 70 70 71 71 70 63 63 67 67 66 65 65 64 62 61 60 60 62 60 59
65 66 64 63 63 63 61 58 63 61 62 64 67 69 70 71 71 71 71 71 72 71 71 70 70 69 69 63 63 64 66 65 65 64 63 61 58 57 57 59 59 59 58
55 62 61 59 57 61 63 63 65 67 62 62 65 67 69 70 71 72 71 71 71 71 70 70 70 69 65 64 62 63 62 62 61 60 59 59 58 59 59 58 56 59 56
57 56 57 58 58 58 57 57 58 67 68 63 63 65 68 69 71 67 69 71 72 71 71 70 69 66 65 65 63 61 60 61 60 59 58 58 58 57 57 57 57 55 53
59 58 60 59 59 60 60 60 59 61 68 68 63 64 67 69 64 62 60 60 64 66 64 64 63 61 61 59 61 61 59 59 58 60 59 58 57 56 55 54 54 53 51

GFSMW_sfc_30mbdewp_030.txt.gz
Dewpoint
57 58 60 61 62 63 65 67 67 68 69 68 67 65 62 62 61 62 65 67 70 71 72 69 69 70 68 68 68 67 66 60 61 53 55 56 57 56 55 55 54 57 57
56 58 59 60 61 63 65 67 67 69 70 68 67 64 62 61 61 63 66 69 70 71 72 71 69 69 67 70 70 68 62 61 56 54 53 51 53 54 54 55 55 55 54
56 57 57 59 60 61 64 67 69 69 70 69 68 67 64 63 63 64 67 70 71 71 73 71 68 70 70 67 70 69 66 58 58 61 56 50 49 51 54 58 55 57 54
56 57 57 58 59 61 64 66 69 70 71 70 67 68 63 61 62 64 65 67 70 70 71 72 71 72 69 69 71 69 66 66 55 58 58 61 61 51 51 54 56 56 56
56 57 57 58 59 61 63 65 69 71 71 72 69 68 67 63 62 62 66 70 70 71 70 71 72 72 71 70 71 70 69 66 57 55 57 57 56 57 53 51 53 56 55
55 56 58 58 58 60 62 64 69 71 72 71 71 71 70 67 63 65 64 65 66 68 70 70 72 72 71 71 72 71 70 68 63 56 58 54 53 53 54 52 53 53 55
54 55 58 59 59 59 62 64 67 70 71 70 71 71 71 71 69 68 67 66 64 64 68 71 71 71 73 71 72 72 69 70 66 63 58 57 56 54 52 50 50 50 52
53 54 57 59 60 60 63 64 66 69 70 70 72 72 73 70 69 69 66 66 64 65 66 70 71 71 71 72 72 71 70 68 68 65 62 56 58 58 56 53 51 51 51
52 54 56 58 60 62 64 65 67 70 70 69 72 73 73 72 67 69 71 67 68 65 67 68 71 70 71 72 72 70 70 67 68 64 65 61 56 58 57 56 54 51 48
50 53 55 57 59 61 63 65 67 69 70 69 70 71 71 73 72 71 71 70 68 69 67 69 70 70 71 72 72 70 70 69 67 64 62 63 56 58 58 56 55 54 52
47 50 52 55 57 60 62 64 66 67 68 69 70 70 70 71 72 71 72 72 71 71 71 70 70 69 71 72 72 71 68 70 68 66 63 64 62 56 55 57 56 55 55
38 42 47 51 54 57 59 62 63 65 67 68 71 71 71 71 70 72 72 73 72 72 72 72 71 70 70 71 72 71 68 69 69 68 67 64 63 64 60 57 59 56 55
38 42 43 45 51 55 58 59 62 62 64 68 68 69 70 70 71 72 72 72 73 73 70 72 72 71 70 71 71 71 71 69 70 69 68 66 63 63 59 60 56 57 58
38 40 41 43 48 53 58 61 59 61 62 64 66 68 70 70 71 72 72 72 73 73 72 72 73 72 71 70 70 70 70 70 69 70 69 67 66 64 64 61 61 58 56
33 38 46 48 51 53 58 62 60 60 61 64 64 67 70 71 71 72 72 72 73 73 73 73 73 73 70 69 71 71 70 70 70 70 70 69 68 66 65 63 62 61 61
25 25 38 46 51 55 58 59 63 62 62 64 65 67 70 71 72 72 72 73 73 73 73 72 73 72 70 68 68 71 69 71 71 70 70 70 68 67 64 64 63 63 62
29 31 35 40 48 53 56 58 62 62 63 65 67 68 70 71 72 72 73 73 73 73 73 73 72 73 72 67 66 68 69 70 71 71 70 69 69 68 67 64 63 62 64
27 29 29 31 42 49 45 55 58 64 64 67 67 69 70 71 72 73 73 73 73 73 73 73 73 73 73 70 66 67 69 70 70 70 71 71 70 69 68 67 65 63 63
30 31 31 34 36 41 45 49 57 60 64 67 68 69 70 70 71 72 72 73 72 72 72 72 73 73 73 70 67 66 69 69 71 71 71 71 71 70 67 68 67 66 65
30 32 32 33 37 46 48 52 56 59 64 66 67 68 70 70 70 72 72 72 72 71 70 71 72 72 73 71 66 66 68 68 68 71 72 69 71 69 66 67 67 67 67
39 39 41 41 43 51 52 54 56 58 63 64 65 68 70 71 71 72 73 73 72 70 72 71 71 73 73 73 66 65 69 67 67 65 68 69 68 66 65 66 68 68 68
51 54 51 45 46 54 54 55 61 61 64 65 65 68 70 69 69 72 73 72 72 72 71 71 71 71 73 71 67 65 66 69 67 67 66 68 66 64 63 63 67 67 66
55 59 47 51 59 62 60 59 62 63 63 65 67 68 70 70 71 72 73 71 72 69 70 68 70 68 71 72 69 64 63 65 68 66 68 68 64 62 61 63 63 64 65
63 62 59 58 62 66 65 66 67 66 66 66 67 68 69 70 70 69 70 69 68 70 68 68 68 68 70 71 71 67 63 64 65 66 66 64 62 62 62 61 62 66 63
61 61 62 63 64 65 66 67 69 70 67 67 68 68 68 69 70 71 68 68 69 68 69 68 68 67 68 70 71 67 65 66 66 62 62 61 62 62 61 63 64 64 62
61 61 61 61 62 62 63 64 65 64 65 65 65 63 63 65 67 67 69 65 66 66 67 68 67 64 67 66 65 63 63 61 61 63 62 62 62 61 62 63 62 63 62

GFSMW_sfc_30mbdewp_033.txt.gz
Dewpoint
54 55 57 58 58 59 61 65 66 68 68 67 66 65 63 63 61 60 62 64 67 69 70 69 70 68 69 67 66 66 64 60 57 53 53 54 54 54 53 53 54 55 58
54 54 56 56 57 60 63 67 68 70 70 68 67 65 64 60 60 60 64 65 68 69 70 70 70 69 69 68 69 67 65 57 54 57 52 51 51 52 53 52 52 54 53
54 55 55 56 57 60 64 67 70 71 71 69 69 68 65 63 60 60 62 66 69 69 72 71 68 69 70 70 70 67 63 58 54 61 58 51 52 50 52 54 55 55 52
54 56 55 56 56 59 63 67 71 71 72 72 67 67 63 60 59 61 60 65 70 69 70 69 68 70 68 70 70 68 66 65 55 55 57 62 62 58 53 53 54 56 55
53 54 56 55 56 58 61 65 71 72 71 72 70 67 66 61 60 60 63 66 71 70 68 71 70 71 71 70 70 70 69 64 60 55 54 55 52 55 55 55 55 55 54
51 54 56 56 56 57 59 64 70 72 73 73 73 71 68 65 61 61 61 63 65 69 71 70 72 73 72 69 71 71 70 69 62 57 56 55 54 54 54 52 55 55 56
48 53 55 56 57 57 59 63 69 72 73 73 73 72 72 71 70 67 62 62 62 62 69 72 72 71 73 70 71 73 70 70 67 64 58 56 55 54 53 51 51 51 52
48 52 54 57 58 59 61 63 68 72 73 73 73 73 73 70 69 68 64 63 62 62 65 73 72 72 72 72 72 71 71 70 69 66 64 58 57 56 55 54 52 52 51
45 49 53 56 58 59 62 64 67 71 73 72 73 74 74 73 69 69 71 68 67 63 67 70 72 72 72 72 73 70 72 69 69 67 66 63 55 56 56 55 54 52 50
42 48 52 55 58 59 62 64 66 70 72 71 73 73 74 74 73 72 72 70 69 70 69 69 70 72 72 72 73 70 71 71 68 64 66 66 57 55 56 55 54 53 51
38 46 51 54 57 59 60 63 66 68 71 71 72 72 73 73 74 72 73 73 72 72 71 72 71 72 72 72 73 72 70 71 71 68 66 66 66 56 54 56 55 54 54
35 45 50 51 54 57 59 61 64 65 70 71 71 72 72 73 73 74 72 74 73 73 73 73 73 72 72 72 73 73 67 71 71 70 68 66 64 66 64 57 59 56 57
36 44 47 49 51 54 58 59 63 63 64 68 70 71 72 72 72 73 74 73 74 74 73 73 73 73 72 72 74 73 72 71 71 71 71 69 67 66 61 61 57 57 58
35 38 40 42 49 52 58 60 60 61 63 64 66 69 71 72 72 72 74 74 74 74 74 73 74 74 74 73 73 73 73 72 71 72 72 71 69 67 67 65 63 61 58
35 36 40 43 46 53 58 61 60 61 62 64 65 68 71 72 72 72 73 74 74 74 74 74 74 74 74 72 72 72 72 73 72 72 72 72 71 69 68 65 64 63 61
28 29 31 41 46 49 57 59 62 61 62 65 65 68 70 72 73 73 74 74 74 74 74 74 74 73 73 70 69 72 72 72 73 72 72 72 71 69 67 66 66 66 65
26 27 29 32 44 48 53 56 62 64 62 65 67 67 70 72 73 74 74 74 74 74 74 74 74 74 74 70 67 68 72 72 72 73 73 72 69 71 69 65 65 64 65
28 27 27 30 35 37 44 54 56 65 65 65 66 68 69 71 73 74 74 74 75 74 74 74 74 74 74 72 67 66 70 71 72 72 73 73 70 71 71 70 67 66 65
28 28 28 28 33 33 38 45 55 60 66 67 67 68 70 71 73 73 74 74 74 74 74 74 75 75 74 72 70 66 69 70 71 71 73 73 73 72 69 71 70 68 67
29 30 30 31 32 36 37 38 44 54 64 66 68 69 71 72 72 73 74 75 75 74 73 74 74 74 75 73 70 68 70 69 70 71 72 71 72 72 68 70 71 69 68
50 47 45 42 42 42 41 49 49 50 59 65 68 70 71 72 73 73 74 75 75 73 74 73 73 74 74 75 70 67 71 69 69 69 70 71 69 70 67 68 71 70 70
53 50 47 51 55 48 49 57 58 59 63 64 67 69 72 71 71 73 74 75 75 74 73 74 73 73 74 73 71 67 68 71 69 68 68 69 68 67 66 65 70 69 69
52 45 47 55 51 53 54 58 62 66 65 68 69 70 72 73 71 73 74 73 74 72 72 71 72 72 72 73 71 67 65 67 70 69 68 67 65 64 64 66 66 67 69
56 59 59 57 55 62 64 63 64 66 67 69 70 71 72 72 72 70 71 71 69 70 70 68 69 69 70 69 72 70 65 63 66 68 69 65 63 65 66 64 66 67 68
63 62 63 63 65 68 69 69 69 68 67 67 67 68 68 69 71 71 67 68 69 67 67 68 67 67 67 67 69 70 71 69 68 69 67 65 65 64 64 65 64 66 68
62 63 63 64 64 65 65 66 67 69 69 68 68 66 65 66 68 68 70 69 68 67 66 64 65 69 66 65 66 67 68 68 66 68 66 65 65 64 63 64 64 65 66